Location: Dürabuch
(48.2640°N, 11.2185°E)
Time: 22:23:13
(UTC+00:00)

Sep Motor Cover - Visible Passes

Search period start: 18 November 2025 00:00
Search period end: 28 November 2025 00:00
Orbit: 833 x 1132 km, 71.0° (Epoch: 18 November)

Date Brightness Start Highest point End Pass type
(mag) Time Alt. Az. Time Alt. Az. Time Alt. Az.
18 Nov ? 02:51:31 12° N 02:51:31 12° N 02:52:57 10° N visible
18 Nov ? 04:39:38 10° N 04:40:58 11° N 04:42:17 10° NNE visible
19 Nov ? 01:34:06 10° NNE 01:34:06 10° NNE 01:34:14 10° NNE visible
19 Nov ? 03:18:55 10° NNW 03:19:21 10° N 03:20:14 10° N visible
19 Nov ? 05:07:07 10° N 05:10:08 13° NNE 05:13:04 10° NE visible
20 Nov ? 02:01:29 11° N 02:01:29 11° N 02:01:48 10° N visible
20 Nov ? 05:34:43 10° N 05:39:07 18° NNE 05:43:19 10° ENE visible
21 Nov ? 02:28:53 10° N 02:28:53 10° N 02:29:16 10° N visible
21 Nov ? 04:16:10 10° N 04:17:54 11° NNE 04:19:36 10° NNE visible
22 Nov ? 04:43:38 10° N 04:47:01 14° NNE 04:50:16 10° NE visible
23 Nov ? 05:11:14 10° N 05:15:55 20° NE 05:20:22 10° E visible
24 Nov ? 03:52:41 10° N 03:54:48 11° NNE 03:56:53 10° NE visible
24 Nov ? 05:38:53 10° NNW 05:44:34 29° NE 05:49:52 10° ESE visible
25 Nov ? 04:20:09 10° N 04:23:52 15° NNE 04:27:25 10° ENE visible
26 Nov ? 04:47:45 10° NNW 04:52:41 22° NE 04:57:21 10° E visible
27 Nov ? 03:29:10 10° N 03:31:42 12° NNE 03:34:09 10° NE visible
27 Nov ? 05:15:25 10° NNW 05:21:15 33° NE 05:26:41 10° ESE visible
